Time,TemperatureF,DewpointF,PressureIn,WindDirection,WindDirectionDegrees,WindSpeedMPH,WindSpeedGustMPH,Humidity,HourlyPrecipIn,Conditions,Clouds,dailyrainin,SolarRadiationWatts/m^2,SoftwareType,DateUTC
2013-05-25 00:02:00,68.0,61.0,-100.00,East,81,3.0,9.0,77,0.00,,,0.00,0.000000,,2013-05-25 05:02:00,
2013-05-25 00:22:00,68.0,61.0,-100.00,East,81,3.0,9.0,77,0.00,,,0.00,0.000000,,2013-05-25 05:22:00,
2013-05-25 00:32:00,68.0,61.0,-100.00,East,81,3.0,9.0,77,0.00,,,0.00,0.000000,,2013-05-25 05:32:00,
2013-05-25 00:43:00,68.0,61.0,-100.00,East,81,3.0,9.0,77,0.00,,,0.00,0.000000,,2013-05-25 05:43:00,
2013-05-25 00:52:00,68.0,61.0,-100.00,East,81,3.0,9.0,77,0.00,,,0.00,0.000000,,2013-05-25 05:52:00,
2013-05-25 01:22:00,66.0,59.0,-100.00,ENE,77,4.0,7.0,78,0.00,,,0.00,0.000000,,2013-05-25 06:22:00,
2013-05-25 01:32:00,66.0,59.0,-100.00,ENE,77,4.0,7.0,78,0.00,,,0.00,0.000000,,2013-05-25 06:32:00,
2013-05-25 01:42:00,66.0,59.0,-100.00,ENE,77,4.0,7.0,78,0.00,,,0.00,0.000000,,2013-05-25 06:42:00,
2013-05-25 01:52:00,66.0,59.0,-100.00,ENE,77,4.0,7.0,78,0.00,,,0.00,0.000000,,2013-05-25 06:52:00,
2013-05-25 02:01:00,66.0,59.0,-100.00,ENE,77,4.0,7.0,78,0.00,,,0.00,0.000000,,2013-05-25 07:01:00,
2013-05-25 02:02:00,65.0,57.0,-100.00,East,88,3.0,9.0,76,0.00,,,0.00,0.000000,,2013-05-25 07:02:00,
2013-05-25 02:22:00,65.0,57.0,-100.00,East,88,3.0,9.0,76,0.00,,,0.00,0.000000,,2013-05-25 07:22:00,
2013-05-25 02:32:00,65.0,57.0,-100.00,East,88,3.0,9.0,76,0.00,,,0.00,0.000000,,2013-05-25 07:32:00,
2013-05-25 02:42:00,65.0,57.0,-100.00,East,88,3.0,9.0,76,0.00,,,0.00,0.000000,,2013-05-25 07:42:00,
2013-05-25 02:52:00,65.0,57.0,-100.00,East,88,3.0,9.0,76,0.00,,,0.00,0.000000,,2013-05-25 07:52:00,
2013-05-25 03:02:00,65.0,57.0,-100.00,ENE,63,3.0,6.0,75,0.00,,,0.00,0.000000,,2013-05-25 08:02:00,
2013-05-25 03:23:00,65.0,57.0,-100.00,ENE,63,3.0,6.0,75,0.00,,,0.00,0.000000,,2013-05-25 08:23:00,
2013-05-25 03:32:00,65.0,57.0,-100.00,ENE,63,3.0,6.0,75,0.00,,,0.00,0.000000,,2013-05-25 08:32:00,
2013-05-25 03:42:00,65.0,57.0,-100.00,ENE,63,3.0,6.0,75,0.00,,,0.00,0.000000,,2013-05-25 08:42:00,
2013-05-25 03:52:00,65.0,57.0,-100.00,ENE,63,3.0,6.0,75,0.00,,,0.00,0.000000,,2013-05-25 08:52:00,
2013-05-25 04:02:00,65.0,56.0,-100.00,ENE,71,3.0,7.0,74,0.00,,,0.00,0.000000,,2013-05-25 09:02:00,
2013-05-25 04:21:00,65.0,56.0,-100.00,ENE,71,3.0,7.0,74,0.00,,,0.00,0.000000,,2013-05-25 09:21:00,
2013-05-25 04:33:00,65.0,56.0,-100.00,ENE,71,3.0,7.0,74,0.00,,,0.00,0.000000,,2013-05-25 09:33:00,
2013-05-25 04:43:00,65.0,56.0,-100.00,ENE,71,3.0,7.0,74,0.00,,,0.00,0.000000,,2013-05-25 09:43:00,
2013-05-25 04:53:00,65.0,56.0,-100.00,ENE,71,3.0,7.0,74,0.00,,,0.00,0.000000,,2013-05-25 09:53:00,
2013-05-25 05:02:00,65.0,56.0,-100.00,ENE,74,3.0,6.0,73,0.00,,,0.00,0.000000,,2013-05-25 10:02:00,
2013-05-25 05:23:00,65.0,56.0,-100.00,ENE,74,3.0,6.0,73,0.00,,,0.00,0.000000,,2013-05-25 10:23:00,
2013-05-25 05:33:00,65.0,56.0,-100.00,ENE,74,3.0,6.0,73,0.00,,,0.00,0.000000,,2013-05-25 10:33:00,
2013-05-25 05:42:00,65.0,56.0,-100.00,ENE,74,3.0,6.0,73,0.00,,,0.00,0.000000,,2013-05-25 10:42:00,
2013-05-25 05:52:00,65.0,56.0,-100.00,ENE,74,3.0,6.0,73,0.00,,,0.00,0.000000,,2013-05-25 10:52:00,
2013-05-25 06:22:00,63.0,56.0,-100.00,East,82,3.0,5.0,78,0.00,,,0.00,0.000000,,2013-05-25 11:22:00,
2013-05-25 06:32:00,63.0,56.0,-100.00,East,82,3.0,5.0,78,0.00,,,0.00,0.000000,,2013-05-25 11:32:00,
2013-05-25 06:42:00,63.0,56.0,-100.00,East,82,3.0,5.0,78,0.00,,,0.00,0.000000,,2013-05-25 11:42:00,
2013-05-25 06:52:00,63.0,56.0,-100.00,East,82,3.0,5.0,78,0.00,,,0.00,0.000000,,2013-05-25 11:52:00,
2013-05-25 07:01:00,63.0,56.0,-100.00,East,82,3.0,5.0,78,0.00,,,0.00,0.000000,,2013-05-25 12:01:00,
2013-05-25 07:02:00,63.0,54.0,-100.00,ENE,74,4.0,6.0,73,0.00,,,0.00,23.000000,,2013-05-25 12:02:00,
2013-05-25 07:22:00,63.0,54.0,-100.00,ENE,74,4.0,6.0,73,0.00,,,0.00,23.000000,,2013-05-25 12:22:00,
2013-05-25 07:32:00,63.0,54.0,-100.00,ENE,74,4.0,6.0,73,0.00,,,0.00,23.000000,,2013-05-25 12:32:00,
2013-05-25 07:42:00,63.0,54.0,-100.00,ENE,74,4.0,6.0,73,0.00,,,0.00,23.000000,,2013-05-25 12:42:00,
2013-05-25 07:52:00,63.0,54.0,-100.00,ENE,74,4.0,6.0,73,0.00,,,0.00,23.000000,,2013-05-25 12:52:00,
2013-05-25 08:02:00,66.0,56.0,-100.00,ENE,78,5.0,10.0,69,0.00,,,0.00,141.000000,,2013-05-25 13:02:00,
2013-05-25 08:22:00,66.0,56.0,-100.00,ENE,78,5.0,10.0,69,0.00,,,0.00,141.000000,,2013-05-25 13:22:00,
2013-05-25 08:32:00,66.0,56.0,-100.00,ENE,78,5.0,10.0,69,0.00,,,0.00,141.000000,,2013-05-25 13:32:00,
2013-05-25 08:42:00,66.0,56.0,-100.00,ENE,78,5.0,10.0,69,0.00,,,0.00,141.000000,,2013-05-25 13:42:00,
2013-05-25 08:52:00,66.0,56.0,-100.00,ENE,78,5.0,10.0,69,0.00,,,0.00,141.000000,,2013-05-25 13:52:00,
2013-05-25 09:22:00,67.0,56.0,-100.00,East,89,6.0,11.0,67,0.00,,,0.00,187.000000,,2013-05-25 14:22:00,
2013-05-25 09:32:00,67.0,56.0,-100.00,East,89,6.0,11.0,67,0.00,,,0.00,187.000000,,2013-05-25 14:32:00,
2013-05-25 09:42:00,67.0,56.0,-100.00,East,89,6.0,11.0,67,0.00,,,0.00,187.000000,,2013-05-25 14:42:00,
2013-05-25 09:52:00,67.0,56.0,-100.00,East,89,6.0,11.0,67,0.00,,,0.00,187.000000,,2013-05-25 14:52:00,
2013-05-25 10:01:00,67.0,56.0,-100.00,East,89,6.0,11.0,67,0.00,,,0.00,187.000000,,2013-05-25 15:01:00,
2013-05-25 10:02:00,68.0,56.0,-100.00,East,84,5.0,11.0,66,0.00,,,0.00,279.000000,,2013-05-25 15:02:00,
2013-05-25 10:22:00,68.0,56.0,-100.00,East,84,5.0,11.0,66,0.00,,,0.00,279.000000,,2013-05-25 15:22:00,
2013-05-25 10:33:00,68.0,56.0,-100.00,East,84,5.0,11.0,66,0.00,,,0.00,279.000000,,2013-05-25 15:33:00,
2013-05-25 10:43:00,68.0,56.0,-100.00,East,84,5.0,11.0,66,0.00,,,0.00,279.000000,,2013-05-25 15:43:00,
2013-05-25 10:53:00,68.0,56.0,-100.00,East,84,5.0,11.0,66,0.00,,,0.00,279.000000,,2013-05-25 15:53:00,
2013-05-25 11:02:00,72.0,59.0,-100.00,East,81,5.0,11.0,64,0.00,,,0.00,495.000000,,2013-05-25 16:02:00,
2013-05-25 11:23:00,72.0,59.0,-100.00,East,81,5.0,11.0,64,0.00,,,0.00,495.000000,,2013-05-25 16:23:00,
2013-05-25 11:33:00,72.0,59.0,-100.00,East,81,5.0,11.0,64,0.00,,,0.00,495.000000,,2013-05-25 16:33:00,
2013-05-25 11:42:00,72.0,59.0,-100.00,East,81,5.0,11.0,64,0.00,,,0.00,495.000000,,2013-05-25 16:42:00,
2013-05-25 11:52:00,72.0,59.0,-100.00,East,81,5.0,11.0,64,0.00,,,0.00,495.000000,,2013-05-25 16:52:00,
2013-05-25 12:22:00,76.0,61.0,-100.00,East,98,5.0,13.0,59,0.00,,,0.00,837.000000,,2013-05-25 17:22:00,
2013-05-25 12:33:00,76.0,61.0,-100.00,East,98,5.0,13.0,59,0.00,,,0.00,837.000000,,2013-05-25 17:33:00,
2013-05-25 12:42:00,76.0,61.0,-100.00,East,98,5.0,13.0,59,0.00,,,0.00,837.000000,,2013-05-25 17:42:00,
2013-05-25 12:52:00,76.0,61.0,-100.00,East,98,5.0,13.0,59,0.00,,,0.00,837.000000,,2013-05-25 17:52:00,
2013-05-25 13:01:00,76.0,61.0,-100.00,East,98,5.0,13.0,59,0.00,,,0.00,837.000000,,2013-05-25 18:01:00,
2013-05-25 13:22:00,77.0,63.0,-100.00,ESE,114,5.0,10.0,63,0.00,,,0.00,692.000000,,2013-05-25 18:22:00,
2013-05-25 13:32:00,77.0,63.0,-100.00,ESE,114,5.0,10.0,63,0.00,,,0.00,692.000000,,2013-05-25 18:32:00,
2013-05-25 13:42:00,77.0,63.0,-100.00,ESE,114,5.0,10.0,63,0.00,,,0.00,692.000000,,2013-05-25 18:42:00,
2013-05-25 13:52:00,77.0,63.0,-100.00,ESE,114,5.0,10.0,63,0.00,,,0.00,692.000000,,2013-05-25 18:52:00,
2013-05-25 14:01:00,77.0,63.0,-100.00,ESE,114,5.0,10.0,63,0.00,,,0.00,692.000000,,2013-05-25 19:01:00,
2013-05-25 14:02:00,80.0,65.0,-100.00,East,92,5.0,10.0,60,0.00,,,0.00,826.000000,,2013-05-25 19:02:00,
2013-05-25 14:22:00,80.0,65.0,-100.00,East,92,5.0,10.0,60,0.00,,,0.00,826.000000,,2013-05-25 19:22:00,
2013-05-25 14:32:00,80.0,65.0,-100.00,East,92,5.0,10.0,60,0.00,,,0.00,826.000000,,2013-05-25 19:32:00,
2013-05-25 14:42:00,80.0,65.0,-100.00,East,92,5.0,10.0,60,0.00,,,0.00,826.000000,,2013-05-25 19:42:00,
2013-05-25 14:52:00,80.0,65.0,-100.00,East,92,5.0,10.0,60,0.00,,,0.00,826.000000,,2013-05-25 19:52:00,
2013-05-25 15:02:00,81.0,66.0,-100.00,SE,132,5.0,11.0,60,0.00,,,0.00,1033.000000,,2013-05-25 20:02:00,
2013-05-25 15:22:00,81.0,66.0,-100.00,SE,132,5.0,11.0,60,0.00,,,0.00,1033.000000,,2013-05-25 20:22:00,
2013-05-25 15:32:00,81.0,66.0,-100.00,SE,132,5.0,11.0,60,0.00,,,0.00,1033.000000,,2013-05-25 20:32:00,
2013-05-25 15:42:00,81.0,66.0,-100.00,SE,132,5.0,11.0,60,0.00,,,0.00,1033.000000,,2013-05-25 20:42:00,
2013-05-25 15:52:00,81.0,66.0,-100.00,SE,132,5.0,11.0,60,0.00,,,0.00,1033.000000,,2013-05-25 20:52:00,
2013-05-25 16:02:00,81.0,68.0,-100.00,East,96,4.0,10.0,64,0.00,,,0.00,584.000000,,2013-05-25 21:02:00,
2013-05-25 16:22:00,81.0,68.0,-100.00,East,96,4.0,10.0,64,0.00,,,0.00,584.000000,,2013-05-25 21:22:00,
2013-05-25 16:33:00,81.0,68.0,-100.00,East,96,4.0,10.0,64,0.00,,,0.00,584.000000,,2013-05-25 21:33:00,
2013-05-25 16:43:00,81.0,68.0,-100.00,East,96,4.0,10.0,64,0.00,,,0.00,584.000000,,2013-05-25 21:43:00,
2013-05-25 16:53:00,81.0,68.0,-100.00,East,96,4.0,10.0,64,0.00,,,0.00,584.000000,,2013-05-25 21:53:00,
2013-05-25 17:02:00,81.0,69.0,-100.00,ENE,72,3.0,9.0,68,0.00,,,0.00,332.000000,,2013-05-25 22:02:00,
2013-05-25 17:23:00,81.0,69.0,-100.00,ENE,72,3.0,9.0,68,0.00,,,0.00,332.000000,,2013-05-25 22:23:00,
2013-05-25 17:33:00,81.0,69.0,-100.00,ENE,72,3.0,9.0,68,0.00,,,0.00,332.000000,,2013-05-25 22:33:00,
2013-05-25 17:42:00,81.0,69.0,-100.00,ENE,72,3.0,9.0,68,0.00,,,0.00,332.000000,,2013-05-25 22:42:00,
2013-05-25 17:52:00,81.0,69.0,-100.00,ENE,72,3.0,9.0,68,0.00,,,0.00,332.000000,,2013-05-25 22:52:00,
2013-05-25 18:22:00,80.0,69.0,-100.00,East,91,3.0,7.0,70,0.00,,,0.00,251.000000,,2013-05-25 23:22:00,
2013-05-25 18:32:00,80.0,69.0,-100.00,East,91,3.0,7.0,70,0.00,,,0.00,251.000000,,2013-05-25 23:32:00,
2013-05-25 18:42:00,80.0,69.0,-100.00,East,91,3.0,7.0,70,0.00,,,0.00,251.000000,,2013-05-25 23:42:00,
2013-05-25 18:52:00,80.0,69.0,-100.00,East,91,3.0,7.0,70,0.00,,,0.00,251.000000,,2013-05-25 23:52:00,
2013-05-25 19:01:00,80.0,69.0,-100.00,East,91,3.0,7.0,70,0.00,,,0.00,251.000000,,2013-05-26 00:01:00,
2013-05-25 19:22:00,78.0,69.0,-100.00,ESE,120,2.0,5.0,75,0.00,,,0.00,106.000000,,2013-05-26 00:22:00,
2013-05-25 19:32:00,78.0,69.0,-100.00,ESE,120,2.0,5.0,75,0.00,,,0.00,106.000000,,2013-05-26 00:32:00,
2013-05-25 19:43:00,78.0,69.0,-100.00,ESE,120,2.0,5.0,75,0.00,,,0.00,106.000000,,2013-05-26 00:43:00,
2013-05-25 19:52:00,78.0,69.0,-100.00,ESE,120,2.0,5.0,75,0.00,,,0.00,106.000000,,2013-05-26 00:52:00,
2013-05-25 20:01:00,78.0,69.0,-100.00,ESE,120,2.0,5.0,75,0.00,,,0.00,106.000000,,2013-05-26 01:01:00,
2013-05-25 20:02:00,76.0,70.0,-100.00,SE,130,0.0,4.0,81,0.00,,,0.00,54.000000,,2013-05-26 01:02:00,
2013-05-25 20:21:00,76.0,70.0,-100.00,SE,130,0.0,4.0,81,0.00,,,0.00,54.000000,,2013-05-26 01:21:00,
2013-05-25 20:32:00,76.0,70.0,-100.00,SE,130,0.0,4.0,81,0.00,,,0.00,54.000000,,2013-05-26 01:32:00,
2013-05-25 20:42:00,76.0,70.0,-100.00,SE,130,0.0,4.0,81,0.00,,,0.00,54.000000,,2013-05-26 01:42:00,
2013-05-25 20:53:00,76.0,70.0,-100.00,SE,130,0.0,4.0,81,0.00,,,0.00,54.000000,,2013-05-26 01:53:00,
2013-05-25 21:21:00,73.0,60.0,-100.00,SE,133,5.0,15.0,63,0.00,,,0.00,2.000000,,2013-05-26 02:21:00,
2013-05-25 21:32:00,73.0,60.0,-100.00,SE,133,5.0,15.0,63,0.00,,,0.00,2.000000,,2013-05-26 02:32:00,
2013-05-25 21:42:00,73.0,60.0,-100.00,SE,133,5.0,15.0,63,0.00,,,0.00,2.000000,,2013-05-26 02:42:00,
2013-05-25 21:52:00,73.0,60.0,-100.00,SE,133,5.0,15.0,63,0.00,,,0.00,2.000000,,2013-05-26 02:52:00,
2013-05-25 22:01:00,73.0,60.0,-100.00,SE,133,5.0,15.0,63,0.00,,,0.00,2.000000,,2013-05-26 03:01:00,
2013-05-25 22:02:00,69.0,61.0,-100.00,East,93,2.0,16.0,76,0.00,,,0.00,0.000000,,2013-05-26 03:02:00,
2013-05-25 22:22:00,69.0,61.0,-100.00,East,93,2.0,16.0,76,0.00,,,0.00,0.000000,,2013-05-26 03:22:00,
2013-05-25 22:33:00,69.0,61.0,-100.00,East,93,2.0,16.0,76,0.00,,,0.00,0.000000,,2013-05-26 03:33:00,
2013-05-25 22:43:00,69.0,61.0,-100.00,East,93,2.0,16.0,76,0.00,,,0.00,0.000000,,2013-05-26 03:43:00,
2013-05-25 22:53:00,69.0,61.0,-100.00,East,93,2.0,16.0,76,0.00,,,0.00,0.000000,,2013-05-26 03:53:00,
2013-05-25 23:02:00,68.0,63.0,-100.00,ESE,119,3.0,8.0,84,0.00,,,0.00,0.000000,,2013-05-26 04:02:00,
2013-05-25 23:23:00,68.0,63.0,-100.00,ESE,119,3.0,8.0,84,0.00,,,0.00,0.000000,,2013-05-26 04:23:00,
2013-05-25 23:33:00,68.0,63.0,-100.00,ESE,119,3.0,8.0,84,0.00,,,0.00,0.000000,,2013-05-26 04:33:00,
2013-05-25 23:42:00,68.0,63.0,-100.00,ESE,119,3.0,8.0,84,0.00,,,0.00,0.000000,,2013-05-26 04:42:00,
2013-05-25 23:52:00,68.0,63.0,-100.00,ESE,119,3.0,8.0,84,0.00,,,0.00,0.000000,,2013-05-26 04:52:00,